Grand Forks, ND

4:09 PM CDT on May 28, 2017 (GMT -0500)
Grand Forks International

Weather History for KGFK - January, 2013

Change the Weather History Date:

Sunday, January 20, 2013

  Actual Average Record
Temperature  
Mean Temperature -7 °F 6 °F  
Max Temperature -1 °F 16 °F 49 °F (1944)
Min Temperature -13 °F -4 °F -35 °F (1970)
Degree Days  
Heating Degree Days 72 59  
Month to date heating degree days 1044 1172  
Since 1 July heating degree days 4802 5031  
Cooling Degree Days 0 0  
Month to date cooling degree days 0 0  
Year to date cooling degree days 0 0  
Moisture  
Dew Point -13 °F    
Average Humidity 68    
Maximum Humidity 78    
Minimum Humidity 57    
Precipitation  
Precipitation T in 0.02 in 0.21 in (1976)
Month to date precipitation 0.39 0.37  
Year to date precipitation 0.39 0.37  
Snow  
Snow T in 0.40 in 2.10 in (1976)
Month to date snowfall 3.5 7.3  
Since 1 July snowfall 18.5 27.2  
Snow Depth 6.00 in    
Sea Level Pressure  
Sea Level Pressure 30.41 in    
Wind  
Wind Speed 13 mph (WNW)    
Max Wind Speed 24 mph    
Max Gust Speed 30 mph    
Visibility 7 miles    
Events Snow    
T = Trace of Precipitation, MM = Missing Value Source: NWS Daily Summary

Daily Weather History Graph

Daily Weather History Graph

Search for Another Location

Airport or City:

Trip Planner

Search our weather history database for the weather conditions in past years. The results will help you decide how hot, cold, wet, or windy it might be!

Date:

Astronomy

Jan. 20, 2013 Rise Set
Actual Time 8:09 AM CST 5:10 PM CST
Civil Twilight 7:34 AM CST 5:45 PM CST
Nautical Twilight 6:56 AM CST 6:23 PM CST
Astronomical Twilight 6:19 AM CST 7:00 PM CST
Moon 12:14 PM CST (1/20) 2:40 AM CST (1/20)
Length of Visible Light 10h 10m
Length of Day
9h 01m
Waxing Gibbous, 66% of the Moon is Illuminated
Jan 20
Waxing Gibbous
Jan 26
Full
Feb 3
Last Quarter
Feb 10
New
Feb 17
First Quarter

Hourly Weather History & Observations

Time (CST) Temp. Windchill Dew Point Humidity Pressure Visibility Wind Dir Wind Speed Gust Speed Precip Events Conditions
12:53 AM -6.0 °F -22.6 °F -13.0 °F 72% 30.41 in 10.0 mi WNW 9.2 mph - N/A   Scattered Clouds
1:53 AM -7.1 °F -23.9 °F -13.0 °F 75% 30.43 in 10.0 mi WNW 9.2 mph - N/A   Mostly Cloudy
2:53 AM -8.0 °F -21.0 °F -14.1 °F 75% 30.43 in 10.0 mi WNW 5.8 mph - N/A   Partly Cloudy
3:53 AM -8.0 °F -19.2 °F -14.1 °F 75% 30.41 in 10.0 mi West 4.6 mph - N/A   Clear
4:53 AM -7.1 °F -18.1 °F -14.1 °F 72% 30.40 in 10.0 mi West 4.6 mph - N/A   Clear
5:53 AM -7.1 °F -18.1 °F -14.1 °F 72% 30.39 in 10.0 mi WSW 4.6 mph - N/A   Mostly Cloudy
6:53 AM -4.0 °F -19.0 °F -11.0 °F 72% 30.40 in 3.0 mi West 8.1 mph - 0.00 in Snow Light Snow
6:59 AM -4.0 °F -19.0 °F -9.4 °F 78% 30.31 in 2.5 mi West 8.1 mph - 0.00 in Snow Light Snow
7:09 AM -4.0 °F -19.0 °F -9.4 °F 78% 30.32 in 3.0 mi West 8.1 mph - 0.00 in Snow Light Snow
7:34 AM -4.0 °F -19.0 °F -9.4 °F 78% 30.32 in 3.0 mi West 8.1 mph - 0.00 in Snow Light Snow
7:53 AM -4.0 °F -17.8 °F -9.9 °F 76% 30.40 in 3.0 mi West 6.9 mph - 0.00 in Snow Light Snow
8:53 AM -2.0 °F -21.2 °F -9.0 °F 72% 30.41 in 8.0 mi WNW 13.8 mph - 0.00 in   Overcast
9:53 AM -2.0 °F -21.9 °F -9.9 °F 69% 30.43 in 10.0 mi WNW 15.0 mph - N/A   Scattered Clouds
10:53 AM -2.0 °F -24.4 °F -11.0 °F 66% 30.44 in 10.0 mi NNW 19.6 mph - N/A   Scattered Clouds
11:53 AM -2.0 °F -24.4 °F -11.0 °F 66% 30.45 in 9.0 mi NNW 19.6 mph - N/A   Mostly Cloudy
12:15 PM -2.2 °F -24.7 °F -9.4 °F 71% 30.36 in 2.0 mi NW 19.6 mph - N/A   Haze
12:23 PM -2.2 °F -23.5 °F -9.4 °F 71% 30.36 in 2.0 mi NNW 17.3 mph 25.3 mph N/A Snow Blowing Snow
12:53 PM -2.0 °F -23.3 °F -9.0 °F 72% 30.45 in 2.0 mi NNW 17.3 mph - N/A   Mostly Cloudy
1:02 PM -2.2 °F -24.1 °F -9.4 °F 71% 30.37 in 0.8 mi NW 18.4 mph - N/A   Overcast
1:39 PM -2.2 °F -22.2 °F -9.4 °F 71% 30.35 in 1.0 mi NW 15.0 mph - 0.00 in   Overcast
1:53 PM -2.0 °F -21.2 °F -11.9 °F 63% 30.44 in 3.0 mi NW 13.8 mph - 0.00 in   Mostly Cloudy
2:53 PM -2.0 °F -21.9 °F -11.9 °F 63% 30.44 in 10.0 mi WNW 15.0 mph - N/A   Mostly Cloudy
3:53 PM -4.0 °F -25.8 °F -13.0 °F 65% 30.44 in 10.0 mi WNW 17.3 mph - N/A   Mostly Cloudy
4:53 PM -6.0 °F -28.4 °F -14.1 °F 68% 30.44 in 10.0 mi NW 17.3 mph - N/A   Mostly Cloudy
5:53 PM -7.1 °F -29.1 °F -17.0 °F 62% 30.43 in 10.0 mi WNW 16.1 mph - N/A   Mostly Cloudy
6:53 PM -9.0 °F -33.6 °F -20.0 °F 59% 30.44 in 10.0 mi NW 19.6 mph 24.2 mph N/A   Clear
7:53 PM -9.9 °F -33.5 °F -20.9 °F 59% 30.43 in 10.0 mi NW 17.3 mph 25.3 mph N/A   Mostly Cloudy
8:53 PM -11.0 °F -34.9 °F -20.9 °F 62% 30.43 in 10.0 mi NW 17.3 mph - N/A   Clear
9:53 PM -11.9 °F -33.0 °F -22.0 °F 61% 30.43 in 10.0 mi NW 12.7 mph - N/A   Clear
10:53 PM -13.0 °F -35.2 °F -22.0 °F 64% 30.43 in 10.0 mi NW 13.8 mph - N/A   Clear
11:53 PM -13.0 °F -34.3 °F -22.0 °F 64% 30.43 in 10.0 mi NW 12.7 mph - N/A   Clear